Theta_e
333 327 327 327 327 328 329 331 333 333 334 336 336 336 336 336 337 337 337 337 337 337 337 338 340 341 341 340 340 340 339 337 338 338 337 336 336 334 335 335 334 335
332 328 328 328 329 330 331 332 333 333 334 335 336 336 337 337 337 337 337 337 338 337 337 338 339 340 340 339 339 339 339 339 338 341 339 337 336 336 336 336 335 334
332 329 327 327 328 329 331 333 334 334 334 335 336 337 337 337 337 337 337 338 338 337 337 338 339 340 340 339 338 338 339 339 339 340 340 338 337 337 337 337 336 335
331 330 329 328 329 330 331 332 333 334 334 335 336 336 337 337 337 337 337 340 338 338 338 338 339 341 340 339 338 338 338 339 340 340 339 339 338 338 337 336 336 335
331 330 330 330 331 331 332 332 333 334 334 335 336 336 336 336 336 336 336 337 338 338 338 338 339 340 341 339 339 337 337 338 340 340 339 338 338 337 337 336 335 335
331 331 330 330 331 332 332 332 333 334 335 335 336 337 336 337 336 336 336 336 338 339 338 338 338 339 341 340 338 338 338 337 338 340 339 338 337 337 337 336 335 335
330 331 330 331 331 332 332 333 334 334 335 336 337 336 337 336 336 336 337 337 337 338 338 338 338 338 339 340 339 337 337 338 338 339 339 338 337 336 335 336 335 335
330 331 331 331 330 331 332 333 334 335 336 336 336 337 337 337 337 337 337 337 337 338 339 339 339 338 339 340 339 337 337 338 339 338 338 337 337 336 335 336 335 334
331 330 331 330 330 331 332 333 334 335 336 336 336 337 338 338 337 337 337 337 337 337 338 338 339 339 339 339 339 338 337 337 338 338 337 337 336 336 336 336 334 334
330 330 330 330 330 331 332 333 334 334 336 336 336 337 336 337 338 338 337 337 337 337 337 338 338 339 339 340 339 339 338 337 338 338 338 337 336 336 336 335 335 333
330 330 329 330 330 331 332 333 333 333 334 335 336 336 336 336 337 338 338 337 337 337 337 338 338 339 339 339 340 339 339 338 338 338 337 337 337 337 339 335 334 334
330 329 329 329 330 331 332 333 333 333 333 335 336 335 335 335 335 337 338 338 338 338 338 338 339 339 339 339 340 339 339 339 338 338 337 336 336 336 336 335 335 335
329 329 330 330 330 331 332 333 333 333 330 332 335 335 334 334 334 335 337 339 338 339 339 339 339 339 339 339 340 339 339 338 338 338 337 336 336 335 335 334 335 335
329 330 330 331 331 332 332 333 334 333 327 327 328 331 334 333 334 334 336 338 339 339 339 340 339 339 339 339 340 339 338 338 339 338 337 336 335 334 334 334 335 335
330 330 330 331 331 332 332 332 333 333 329 328 329 330 333 334 334 334 334 335 335 338 339 339 339 339 339 339 339 339 339 338 338 338 337 336 335 334 333 333 334 335
330 330 330 331 332 331 331 332 333 334 331 327 328 330 332 333 333 334 334 334 335 335 336 338 338 339 334 327 328 338 339 339 338 338 337 336 335 334 333 333 334 334
329 330 330 330 331 331 332 332 332 333 333 329 328 328 328 329 331 332 332 334 334 335 334 334 337 338 322 314 314 320 336 338 338 337 338 337 336 334 333 333 332 333
327 329 329 330 331 331 331 332 332 332 332 332 326 326 328 329 329 331 332 333 334 334 334 334 333 326 311 311 311 312 321 338 338 338 337 337 337 335 335 333 332 332
326 328 328 328 328 330 331 331 332 332 332 332 328 327 329 330 329 330 330 332 332 332 333 333 333 316 305 307 309 309 310 326 339 338 337 337 337 336 335 333 332 331
324 326 328 327 328 328 329 330 331 331 332 332 331 329 329 329 330 331 331 330 331 332 332 333 332 319 307 307 307 306 306 313 338 338 338 337 337 336 335 333 332 331
323 324 325 327 326 326 328 329 330 331 332 332 331 329 329 329 330 330 330 330 331 331 330 331 332 315 307 305 304 304 304 306 334 337 337 337 337 336 335 334 332 332
323 325 327 327 328 328 329 330 331 331 331 331 330 330 330 330 329 329 329 329 330 330 329 329 331 311 306 305 304 302 302 314 324 332 335 336 336 333 333 333 332 332
321 321 321 322 326 329 330 330 331 331 330 331 330 329 329 326 326 327 329 330 329 329 328 329 330 315 305 305 303 301 305 318 323 329 332 327 328 328 328 328 328 329
320 321 321 320 320 319 321 321 322 323 328 330 329 328 327 328 329 329 329 328 327 326 327 328 330 322 307 304 302 301 311 323 326 329 330 327 326 326 328 329 329 328
319 319 320 321 321 322 321 321 321 320 321 323 324 326 327 327 327 329 329 328 328 328 326 328 330 325 307 303 301 301 309 324 328 329 328 327 327 326 327 328 330 327
321 320 320 320 321 322 321 321 320 321 322 323 323 325 324 325 325 326 327 326 327 326 327 327 328 328 317 303 301 301 305 325 329 328 327 326 325 327 326 327 329 329
Wind_Speed
12 6 11 12 13 10 7 6 5 7 9 8 9 11 12 12 11 11 12 11 11 11 9 9 8 8 7 7 7 7 7 8 7 6 7 7 7 7 8 7 6 7
11 9 10 11 11 12 14 15 12 9 9 8 7 7 9 9 10 11 11 12 12 11 10 10 9 8 8 7 7 7 7 7 7 5 7 8 8 8 9 9 8 6
12 12 13 15 15 17 14 11 12 12 11 10 9 8 8 8 9 10 11 12 11 11 11 10 9 9 8 8 7 7 8 6 7 6 7 9 7 8 7 7 6 7
14 15 15 16 16 16 14 12 11 9 9 10 12 11 9 8 9 11 11 11 10 10 10 9 9 8 8 8 8 8 8 7 6 6 7 6 7 7 7 6 6 6
15 15 14 15 15 14 13 13 12 11 12 12 10 11 11 10 9 10 10 10 10 10 9 10 9 9 8 7 8 8 7 7 6 7 7 7 6 6 6 6 6 7
15 15 16 16 15 14 13 14 13 13 13 12 12 10 10 11 11 12 11 10 10 10 10 10 10 9 8 7 7 7 7 7 7 7 8 8 7 6 5 6 6 7
15 15 16 15 14 13 13 13 13 13 13 12 10 11 11 12 12 13 12 12 12 11 11 10 10 10 8 7 6 6 6 7 7 8 9 7 7 7 5 5 6 7
16 15 15 13 13 13 13 12 12 13 12 10 11 11 12 13 13 11 11 13 12 11 10 10 10 9 8 8 7 7 7 6 7 9 9 8 7 8 7 5 6 7
15 14 13 14 14 13 14 13 11 10 11 11 11 11 12 13 12 11 11 10 9 9 9 9 9 9 8 8 8 8 8 7 8 9 10 9 9 9 9 7 6 8
13 13 14 14 14 13 13 12 10 11 11 12 12 11 12 11 11 11 11 11 11 11 11 10 10 9 8 9 10 10 9 9 9 9 10 10 10 9 9 9 9 8
14 13 14 14 14 12 13 12 11 10 11 13 12 11 11 10 10 10 10 10 10 11 12 12 11 11 10 10 9 9 10 10 9 9 10 10 10 10 9 10 9 10
14 13 14 14 14 13 13 13 12 10 11 12 13 13 11 10 11 10 10 11 11 11 11 11 11 11 11 11 10 9 9 10 9 9 10 10 10 9 10 9 10 10
13 13 12 12 13 13 12 12 13 12 9 10 12 13 12 11 10 11 9 10 11 11 12 12 11 11 11 11 10 9 9 9 10 10 9 9 10 10 9 9 9 9
12 11 11 11 11 12 13 13 13 11 11 12 9 10 12 13 12 12 11 9 10 11 11 10 10 11 11 12 11 11 10 9 10 10 9 9 9 9 9 9 10 10
10 9 8 9 11 12 13 13 13 12 13 12 11 11 9 12 12 12 12 10 6 8 10 10 11 11 10 11 12 13 11 11 11 10 10 10 9 9 9 10 10 10
10 9 10 10 10 11 12 13 13 13 12 13 14 15 13 11 11 11 11 11 11 9 8 9 10 9 11 16 15 12 13 12 11 12 11 11 10 10 10 10 11 10
10 10 10 12 12 12 12 12 13 12 12 14 12 9 8 5 4 9 11 11 12 11 10 8 9 10 16 16 18 19 14 12 13 13 13 12 12 12 12 12 9 10
10 10 11 12 13 14 13 13 12 12 13 11 12 13 11 11 9 8 9 10 10 11 11 10 8 8 15 18 19 19 16 12 10 11 11 12 12 12 11 10 10 9
10 11 12 12 13 13 13 12 13 13 13 12 13 14 12 11 13 13 10 9 10 11 11 11 10 11 13 15 18 19 19 16 11 12 12 12 12 11 10 9 9 9
8 10 12 13 13 14 15 14 14 14 13 12 11 11 11 11 11 12 12 12 11 10 10 10 11 12 16 17 17 17 17 15 11 11 12 12 12 11 10 9 9 9
8 8 8 9 11 12 12 14 14 13 12 11 11 12 13 13 12 11 10 10 9 9 9 9 10 14 15 15 14 15 16 12 11 9 8 9 11 11 11 11 9 9
9 9 9 9 10 12 12 12 12 12 12 10 10 10 10 8 5 5 7 9 10 10 9 10 10 14 15 15 15 12 6 6 7 7 8 9 8 5 4 1 3 6
9 8 5 4 9 13 13 11 11 11 11 9 10 11 9 9 10 11 10 10 9 6 6 9 9 12 15 15 14 12 8 8 8 7 7 4 5 6 7 7 4 1
10 12 11 9 4 3 2 1 0 1 6 9 12 9 9 11 11 11 10 9 8 8 10 12 12 13 16 15 12 15 14 11 8 8 10 8 6 3 4 7 10 17
8 7 11 14 14 13 11 10 9 6 3 2 1 3 9 11 12 11 10 9 12 13 17 17 13 13 15 15 16 18 15 9 8 8 10 8 7 7 6 6 6 10
11 9 7 9 11 12 10 7 4 5 7 8 11 10 10 8 7 8 9 10 13 14 14 14 13 10 10 16 17 18 20 12 8 8 9 7 5 7 7 6 8 9
Wind_Direction
193 159 179 195 185 196 234 264 264 220 201 199 195 194 194 197 185 186 187 185 194 203 204 207 207 207 208 210 204 201 204 211 205 195 202 204 207 192 192 189 183 180
184 177 192 201 205 207 202 195 202 217 217 201 202 205 209 195 185 184 188 191 192 198 199 204 209 206 207 209 204 201 206 203 207 192 197 200 204 191 193 189 186 183
183 184 193 201 208 209 208 209 203 197 202 203 193 198 204 197 190 192 192 191 194 193 194 201 206 205 206 210 205 207 207 201 204 195 192 197 189 190 190 182 186 184
188 191 198 207 211 211 206 205 205 206 206 202 199 194 194 191 190 196 198 192 192 191 189 195 203 201 203 207 206 209 210 207 200 184 194 195 190 186 187 181 187 189
191 194 203 210 211 213 206 204 205 201 204 208 205 196 188 189 187 196 197 195 191 186 185 192 197 198 193 201 202 206 206 206 195 185 192 196 194 184 188 178 188 193
193 194 202 207 208 208 208 207 204 203 202 204 204 194 189 183 190 193 194 194 195 192 188 189 194 200 195 195 195 206 203 203 198 190 197 198 195 191 182 187 190 197
193 197 205 207 206 206 209 207 204 203 204 203 193 191 183 185 193 196 192 195 196 197 196 193 194 197 196 194 194 204 206 204 200 195 202 205 192 195 196 188 198 202
195 197 202 201 202 203 209 212 208 202 201 198 193 190 186 189 194 196 194 199 197 196 200 200 196 194 190 190 198 199 207 203 204 201 203 204 194 199 197 197 197 205
194 195 199 200 199 202 205 209 207 201 197 196 195 192 191 191 191 192 193 197 196 196 200 202 199 192 187 189 198 200 201 203 204 203 203 202 200 202 199 194 195 206
194 196 197 197 200 201 202 200 199 201 196 197 197 192 191 191 187 191 195 197 199 198 197 199 199 194 189 192 199 201 203 201 200 203 203 202 199 200 199 197 204 202
194 193 195 198 200 198 198 194 194 199 198 199 196 195 192 188 186 188 196 200 202 203 202 201 199 194 196 197 199 203 204 202 197 198 202 202 199 198 196 199 202 208
196 193 196 198 197 197 196 194 195 196 200 202 198 195 191 189 186 188 195 199 202 204 207 207 200 196 197 200 201 202 206 205 200 197 199 200 198 198 197 196 201 206
194 194 195 195 195 196 197 196 198 198 204 216 201 195 192 186 189 191 196 196 198 204 207 205 201 196 197 197 199 201 203 205 204 202 198 199 200 197 195 194 198 201
196 194 192 192 192 196 201 200 200 192 185 210 237 225 194 189 185 191 194 193 197 201 205 204 203 200 197 196 195 196 198 204 207 207 205 203 201 199 193 194 197 200
192 189 187 189 191 197 202 203 202 192 187 201 200 221 223 193 186 187 187 183 189 200 202 199 203 204 201 196 193 193 192 198 203 208 208 208 205 200 197 196 200 201
184 182 180 182 189 199 207 206 203 197 184 189 206 211 212 203 185 182 181 184 189 196 200 201 204 203 203 200 199 196 192 195 197 201 204 207 206 203 202 204 203 201
177 181 178 182 185 194 206 213 209 203 193 188 194 202 230 266 255 185 184 189 192 193 196 200 201 203 196 196 201 203 200 200 197 200 200 204 206 204 205 204 202 199
181 178 180 183 184 192 201 210 214 210 206 189 176 201 205 195 200 228 207 193 194 195 198 202 209 208 192 192 195 201 204 205 205 202 201 205 208 209 209 203 197 193
189 186 185 184 186 190 196 202 209 214 210 199 182 200 199 191 195 202 210 219 201 199 200 199 202 196 188 196 197 199 201 200 205 205 205 206 205 207 209 206 198 192
202 201 195 191 190 190 193 198 203 208 208 202 189 195 200 202 199 202 195 202 211 204 202 203 204 201 203 204 207 203 203 203 211 210 210 207 203 200 200 202 200 192
206 213 214 200 195 198 204 203 198 199 199 199 196 194 198 203 206 205 205 203 204 204 203 211 214 205 208 217 220 209 205 206 219 215 216 212 206 200 197 196 192 190
188 199 208 207 199 201 201 201 197 193 195 193 195 197 202 202 207 208 206 206 204 202 203 212 221 212 210 212 212 215 205 223 239 229 222 222 213 193 179 190 194 191
160 153 160 223 215 201 199 199 198 196 196 184 187 193 195 183 193 210 216 215 211 209 214 221 228 219 212 212 208 176 173 215 214 222 232 214 179 148 131 133 122 34
173 160 159 156 180 219 228 219 211 260 189 183 188 178 183 185 192 198 199 194 185 188 213 227 229 218 204 207 191 175 198 212 206 205 219 202 208 180 148 165 180 184
213 203 175 170 173 183 189 193 183 172 182 119 17 208 202 199 200 200 191 184 197 207 210 216 225 222 198 190 172 186 198 214 199 200 211 204 195 188 174 171 183 187
197 188 181 172 175 175 175 188 186 178 191 185 176 178 198 219 220 212 196 196 202 204 205 211 219 221 196 184 174 185 195 194 185 199 210 201 194 194 183 178 183 186